Location: Bats
(43.6587°N, 0.4584°W)
Time: 08:21:47
(UTC+00:00)

Cosmos 292 Rocket - Visible Passes

Search period start: 10 April 2026 00:00
Search period end: 20 April 2026 00:00
Orbit: 661 x 682 km, 74.0° (Epoch: 9 April)

Date Brightness Start Highest point End Pass type
(mag) Time Alt. Az. Time Alt. Az. Time Alt. Az.
10 Apr 6.7 00:25:41 10° NE 00:26:41 11° NE 00:26:53 11° NE visible
10 Apr 5.4 02:02:46 10° NNW 02:05:05 28° NNW 02:05:05 28° NNW visible
11 Apr 6.1 00:57:34 10° N 01:00:01 21° NNE 01:00:01 21° NNE visible
11 Apr 5.9 02:37:09 10° NW 02:38:14 16° NW 02:38:14 16° NW visible
12 Apr 5.7 01:31:11 10° NNW 01:33:13 25° N 01:33:13 25° N visible
13 Apr 6.2 00:26:09 10° N 00:28:16 18° NNE 00:28:16 18° NNE visible
13 Apr 6.0 02:05:25 10° NNW 02:06:29 16° NW 02:06:29 16° NW visible
14 Apr 5.9 00:59:36 10° N 01:01:35 24° N 01:01:35 24° N visible
14 Apr 6.3 23:54:46 10° NNE 23:56:42 16° NE 23:56:42 16° NE visible
15 Apr 6.0 01:33:43 10° NNW 01:34:55 18° NNW 01:34:55 18° NNW visible
16 Apr 5.9 00:28:02 10° N 00:30:04 23° N 00:30:04 23° N visible
16 Apr 6.3 23:23:26 10° NNE 23:25:15 15° NE 23:25:15 15° NE visible
17 Apr 6.0 01:02:02 10° NNW 01:03:29 20° NNW 01:03:29 20° NNW visible
17 Apr 5.9 23:56:30 10° N 23:58:41 23° NNE 23:58:41 23° NNE visible
18 Apr 6.4 01:36:46 10° NW 01:36:54 11° NW 01:36:54 11° NW visible
18 Apr 6.3 22:52:14 10° NNE 22:53:54 13° NE 22:53:54 13° NE visible
19 Apr 5.9 00:30:22 10° NNW 00:32:07 22° NNW 00:32:07 22° NNW visible
19 Apr 5.8 23:24:57 10° N 23:27:22 23° NNE 23:27:22 23° NNE visible
